Weather in Tacoma

United States     47°14′53″N   122°27′51″W
temp.,
°C
wind,
m/s
gust,
m/s
humid.,
%
clouds,
%
prec.,
mm/h
press.,
hPa
HPBL,
m
24 may, tue
tue2423:00+10ssw2594100 1.0 1021148
02:00+9sw2598100 0.0 1021158
05:00+9ssw1197100 0.0 102161
08:00+11ssw1287100 0.1 1020338
11:00+17ssw125688 0.1 10191077
14:00+19sw3540100 0.0 10171597
17:00+14wsw3659100 0.0 1016395
20:00+14wsw2463100 0.0 1016377
25 may, wed
wed2523:00+12ssw2564100 0.0 1016222
02:00+11sw1368100 0.0 1017152
05:00+11sse1169100 0.0 101697
08:00+11sse1173100 0.0 1017111
11:00+18wsw245129 0.0 10161416
14:00+21wsw3440100 0.0 10151634
17:00+21w3339100 0.0 10141567
20:00+17nw2361100 0.0 101360
26 may, thu
thu2623:00+13n1271100 0.0 101368
02:00+11nne2379100 0.0 101190
05:00+11nnw1183100 0.0 101034
08:00+14sse0169100 0.0 1010221
11:00+19ssw2454100 0.0 1011656
14:00+17wsw4777100 0.4 1011669
17:00+16sw3688100 2.2 1012736
20:00+12wsw3896100 1.3 1013532
27 may, fri
fri2723:00+12sw3795100 1.4 1013424
02:00+9sw4109274 0.0 1014542
05:00+8ssw4108891 0.0 1015542
08:00+12sw476115 0.0 10161134
11:00+13sw4652100 0.0 10171657
14:00+17s464290 0.0 10162074
17:00+18ssw243990 0.0 10141933
20:00+14nnw376189 0.0 1014414
28 may, sat
sat2823:00+9w1180100 0.0 101412
02:00+8wsw1182100 0.0 101316
05:00+8sse0080100 0.0 101231
08:00+12n00646 0.0 1011349
11:00+17ssw1247100 0.0 10091278
14:00+12w1195100 2.2 1007159
17:00+11ne1398100 5.9 1006242
20:00+11n1399100 0.8 1005117